DW8935 Weather Reports


time (UTC)temp
F
wind
direction
speed
knots
gust
knots
rain 1hr
in
rain 24hr
in
rain mn
in
humidity
%
barometer
mb
20260905071522 54 271 8.7 16.5 0.00 0.00 0.00 83 1005.2
20260905070029 56 266 7.8 17.4 0.00 0.00 0.00 79 1004.8
20260905064517 58 229 1.7 9.6 0.00 0.00 0.00 76 1003.8
20260905063017 58 263 4.3 12.2 0.00 0.00 0.00 77 1003.7
20260905061518 58 252 4.3 13.0 0.00 0.00 0.00 79 1003.7
20260905060017 59 236 6.1 22.6 0.00 0.00 0.00 72 1003.9
20260905054533 64 255 4.3 12.2 0.00 0.00 0.00 55 1003.3
20260905053016 65 229 7.8 13.9 0.00 0.00 0.00 53 1003.1
20260905051533 66 264 8.7 15.6 0.00 0.00 0.00 51 1003.3
20260905050014 66 237 8.7 16.5 0.00 0.00 0.00 50 1003.2
20260905044519 66 274 8.7 23.5 0.00 0.00 0.00 49 1003.2
20260905043011 67 225 7.8 20.0 0.00 0.00 0.00 50 1002.8
20260905041510 66 263 12.2 20.9 0.00 0.00 0.00 53 1002.7
20260905040008 66 265 9.6 16.5 0.00 0.00 0.00 57 1002.8
20260905034508 65 244 9.6 19.1 0.00 0.00 0.00 58 1002.9
20260905033016 64 259 8.7 21.7 0.00 0.00 0.00 59 1003.0
20260905031511 63 294 10.4 18.2 0.00 0.00 0.00 62 1003.2
20260905030006 60 267 8.7 18.2 0.00 0.00 0.00 65 1003.4
20260905024506 59 269 11.3 23.5 0.00 0.00 0.00 63 1003.4
20260905023005 62 248 8.7 20.0 0.00 0.00 0.00 66 1003.4
20260905021504 66 272 10.4 20.9 0.00 0.00 0.00 57 1002.9
20260905020005 65 310 8.7 20.9 0.00 0.00 0.00 57 1003.0
20260905014558 65 282 11.3 19.1 0.00 0.00 0.00 69 1003.4
20260905013100 64 5 3.5 15.6 0.00 0.00 0.00 72 1003.2
20260905011556 63 342 9.6 17.4 0.00 0.00 0.00 74 1003.6
20260905010104 63 294 9.6 19.1 0.00 0.00 0.00 74 1003.5
20260905004547 62 319 7.8 16.5 0.00 0.00 0.00 76 1003.8
20260905003046 61 314 7.8 16.5 0.00 0.00 0.00 76 1003.7
20260905001544 61 298 6.1 13.9 0.00 0.00 0.00 78 1003.7
20260905000042 61 311 7.8 17.4 0.00 0.00 0.00 79 1003.7
20260904234548 60 285 6.1 18.2 0.00 0.00 0.00 82 1004.0
20260904233042 59 338 4.3 16.5 0.00 0.00 0.00 86 1004.0
20260904231540 58 301 5.2 13.9 0.00 0.00 0.00 89 1004.0
20260904230040 57 271 6.1 13.0 0.00 0.00 0.00 91 1004.0
20260904224549 57 343 1.7 5.2 0.00 0.00 0.00 91 1004.1
20260904223040 57 16 2.6 7.0 0.00 0.00 0.00 91 1004.3
20260904221539 57 17 1.7 5.2 0.00 0.00 0.00 91 1004.8
20260904220037 57 319 0.9 7.0 0.00 0.00 0.00 90 1005.0
20260904214536 57 343 5.2 13.0 0.00 0.00 0.00 90 1004.1
20260904213034 57 344 5.2 10.4 0.00 0.00 0.00 90 1004.9
20260904211534 57 342 3.5 8.7 0.00 0.00 0.00 90 1005.5
20260904210034 57 323 3.5 7.0 0.00 0.00 0.00 89 1005.8
20260904204531 57 313 3.5 9.6 0.00 0.00 0.00 89 1006.0
20260904203039 58 338 2.6 7.8 0.00 0.00 0.00 89 1005.9
20260904201531 58 324 2.6 6.1 0.00 0.00 0.00 89 1005.9
20260904200030 57 306 1.7 7.0 0.00 0.00 0.00 89 1005.3
20260904194529 57 360 0.9 6.1 0.00 0.00 0.00 89 1005.8
20260904193030 57 351 3.5 7.0 0.00 0.00 0.00 88 1006.3
20260904191527 58 342 2.6 11.3 0.00 0.00 0.00 88 1006.4
20260904190027 58 340 7.8 16.5 0.00 0.00 0.00 89 1006.1
20260904184525 58 325 8.7 20.0 0.00 0.00 0.00 89 1006.6
20260904183025 58 313 7.0 12.2 0.00 0.00 0.00 89 1006.7
20260904181524 57 328 6.1 13.9 0.00 0.00 0.00 90 1005.7
20260904180022 57 22 5.2 15.6 0.00 0.00 0.00 90 1005.7
20260904174520 58 360 0.9 6.1 0.00 0.00 0.00 90 1005.9
20260904173020 58 360 1.7 13.0 0.00 0.00 0.00 90 1006.5
20260904171517 57 340 1.7 10.4 0.00 0.00 0.00 90 1006.7
20260904170016 57 344 5.2 13.9 0.00 0.00 0.00 90 1007.3
20260904164514 57 5 6.1 19.1 0.00 0.00 0.00 89 1007.3
20260904163011 58 324 5.2 20.0 0.00 0.00 0.00 89 1007.9
20260904161508 58 40 3.5 12.2 0.00 0.00 0.00 88 1008.7
20260904160015 58 323 5.2 11.3 0.00 0.00 0.00 88 1009.1
20260904154505 57 313 5.2 10.4 0.00 0.00 0.00 88 1008.9
20260904153002 57 327 2.6 12.2 0.00 0.00 0.00 88 1009.6
20260904151501 57 309 2.6 7.0 0.00 0.00 0.00 88 1009.7
20260904150104 57 315 1.7 7.8 0.00 0.00 0.00 87 1009.8
20260904144601 58 335 5.2 10.4 0.00 0.00 0.00 86 1010.1
20260904143054 58 333 7.0 12.2 0.00 0.00 0.00 84 1010.4
20260904141554 59 313 6.1 11.3 0.00 0.00 0.00 81 1010.7
20260904140101 61 316 4.3 9.6 0.00 0.00 0.00 77 1010.8
20260904134550 61 322 2.6 9.6 0.00 0.00 0.00 74 1010.7
20260904133052 60 293 3.5 14.8 0.00 0.00 0.00 75 1010.8
20260904131547 60 319 3.5 9.6 0.00 0.00 0.00 77 1010.9
20260904130051 60 355 4.3 9.6 0.00 0.00 0.00 77 1010.9
20260904124550 60 28 6.1 13.0 0.00 0.00 0.00 75 1011.1
20260904123043 60 323 6.1 14.8 0.00 0.00 0.00 74 1011.4
20260904121540 60 318 4.3 14.8 0.00 0.00 0.00 73 1011.9
20260904120037 60 333 5.2 13.9 0.00 0.00 0.00 73 1012.3
20260904114538 60 329 5.2 12.2 0.00 0.00 0.00 74 1012.8
20260904113036 59 331 5.2 15.6 0.00 0.00 0.00 75 1012.8
20260904111539 59 311 4.3 10.4 0.00 0.00 0.00 73 1013.0
20260904110032 59 310 1.7 7.8 0.00 0.00 0.00 73 1013.3
20260904104535 58 337 0.9 7.0 0.00 0.00 0.00 73 1013.3
20260904103031 58 317 1.7 4.3 0.00 0.00 0.00 74 1013.4
20260904101530 57 287 0.0 4.3 0.00 0.00 0.00 73 1013.5
20260904100029 57 302 0.0 0.0 0.00 0.00 0.00 72 1013.7
20260904094529 57 302 0.0 2.6 0.00 0.00 0.00 69 1013.6
20260904093029 57 296 0.9 4.3 0.00 0.00 0.00 69 1013.7
20260904091528 57 319 0.0 4.3 0.00 0.00 0.00 68 1013.8
20260904090033 58 9 1.7 4.3 0.00 0.00 0.00 67 1013.8
20260904084526 58 360 0.9 5.2 0.00 0.00 0.00 66 1014.0
20260904083024 59 315 1.7 6.1 0.00 0.00 0.00 65 1014.1
20260904081523 59 333 3.5 7.8 0.00 0.00 0.00 64 1014.1
20260904080022 60 355 2.6 11.3 0.00 0.00 0.00 64 1014.3
20260904074532 60 326 3.5 8.7 0.00 0.00 0.00 63 1014.6
20260904073024 61 325 3.5 9.6 0.00 0.00 0.00 63 1014.5